Tracking 23758 objects as of 26-Oct-2021
HD Live streaming from Space Station
objects crossing your sky now

NAVSTAR 10 (USA 5)

Track NAVSTAR 10 (USA 5) now!
NAVSTAR 10 (USA 5) is classified as:


NORAD ID: 15271
Int'l Code: 1984-097A
Perigee: 20,537.4 km
Apogee: 21,292.2 km
Inclination: 63.3 °
Period: 747.6 minutes
Semi major axis: 27285 km
RCS: 1.5246 m2 (large)
Launch date: September 8, 1984
Source: United States (US)
Launch site: AIR FORCE WESTERN TEST RANGE (AFWTR)
aabbcc
Your satellite tracking list
Your tracking list is empty




NASA's NSSDC Master Catalog

Two Line Element Set (TLE):
1 15271U 84097A   21299.07229486 -.00000058  00000-0  00000-0 0  9999
2 15271  63.3208 341.4663 0138313 228.5970  99.5424  1.92618770263666
Source of the keplerian elements: AFSPC